Regional Weather Roundup
Issued by NWS

Home | Current Version | Previous Version | Text Only | Print | Product List | Glossary Off
Versions: 1 2 3 4 5 6 7 8 9 10 11 12 13 14 15 16 17 18 19 20 21 22 23 24 25 26 27 28 29 30 31 32 33 34 35 36 37 38 39 40 41 42 43 44 45 46 47 48 49 50

000
ASUS43 KLOT 201909
RWRIL

ILLINOIS REGIONAL WEATHER ROUNDUP
NATIONAL WEATHER SERVICE CHICAGO/ROMEOVILLE IL
200 PM CDT THU JUL 20 2017

NOTE: "FAIR" INDICATES FEW OR NO CLOUDS BELOW 12,000 FEET WITH NO
SIGNIFICANT WEATHER AND/OR OBSTRUCTIONS TO VISIBILITY.

* THESE STATIONS ARE NOT UNDER NWS QUALITY CONTROL. THEY ALSO MAY NOT
  REPORT WEATHER SUCH AS PRECIPITATION OR FOG.

ILZ001-002-007-009-015-016-024-202000-
NORTHWEST ILLINOIS

CITY           SKY/WX    TMP DP  RH WIND       PRES   REMARKS
MOLINE         MOSUNNY   90  76  63 W6        29.95S HX 101
STERLING*      CLOUDY    85  77  77 SW8       29.96S HX  95
SAVANNA*       CLOUDY    85  76  74 CALM      29.96S HX  94
$$

ILZ003-004-008-010-011-017-018-202000-
NORTH CENTRAL ILLINOIS

CITY           SKY/WX    TMP DP  RH WIND       PRES   REMARKS
ROCKFORD       CLOUDY    85  75  72 NW7       29.97S HX  93
FREEPORT*      CLOUDY    82  76  81 NW3       29.98F HX  88
ROCHELLE*      LGT RAIN  80  76  85 W10       29.97F HX  86
DE KALB*       PTSUNNY   83  76  78 SW13      29.98S HX  91
PERU*          PTSUNNY  N/A N/A N/A SW8       29.97S
$$

ILZ005-006-012>014-019>023-202000-
NORTHEAST ILLINOIS

CITY           SKY/WX    TMP DP  RH WIND       PRES   REMARKS
CHICAGO-OHARE  CLOUDY    87  74  64 W13G20    29.95R HX  95
CHICAGO-MIDWAY CLOUDY    89  74  60 SW14      29.94F HX  98
AURORA         SUNNY     85  76  74 W15       29.96F HX  94
LANSING*       MOSUNNY   86  73  64 SW12G21   29.95F HX  92
JOLIET*        PTSUNNY   89  76  66 W9G20     29.95F HX  99
WAUKEGAN       PTSUNNY   85  75  72 NW8       29.95S HX  93
DUPAGE AIRPORT CLOUDY    85  76  74 W10       29.96S HX  94
WHEELING       PTSUNNY   86  75  69 W12       29.96S HX  95
MORRIS*        CLOUDY    84  75  74 W10       29.95S HX  92
ROMEOVILLE*    PTSUNNY   86  73  64 W16       29.96S HX  94
NORTHERLY ISL    N/A     87  70  56 SW6         N/A  HX  92
$$

LMZ740>746-202000-
SOUTHERN LAKE MICHIGAN

STATION/POSITION SKY/WX   TEMP    WIND        PRES    VSBY  WAVE
                          AIR SEA DIR/SP/G                  HT/PER
                          (F)     (DEG/KT/KT) (MB)    (MI)  (FT/S)
SOUTHERN BUOY              71 71   70/  2/  4 1015.0          2/ 5
WILMETTE HARBOR            74 72   60/  8/ 10   N/A           2/ 2
HARRISON CRIB              86     270/ 13/ 14   N/A
BURNHAM HARBOR             87                   N/A
CALUMET HARBOR             87     230/  8/ 15 1013.5F
BURNS HARBOR               81     270/ 10/ 12 1014.6F
MICHIGAN CITY              79     280/  8/  9   N/A
MICHIGAN CITY 6N           76 75  340/  4/  6   N/A           1/ 3
ST. JOSEPH                 74 74  360/  6/  8 1014.5          2/ 4
$$

ILZ025>027-034>036-040-047-049-050-058-095>099-202000-
WEST-CENTRAL ILLINOIS

CITY           SKY/WX    TMP DP  RH WIND       PRES   REMARKS
QUINCY         SUNNY     97  75  49 SW13G22   29.98F HX 109
GALESBURG*     MOSUNNY   91  76  62 SW9       29.97F HX 103
MACOMB*        SUNNY     92  77  61 SW13      29.98F HX 105
JACKSONVILLE*  SUNNY     94  75  54 SW12      29.99F HX 105
PITTSFIELD*    SUNNY     95  77  54 SW8       30.01F HX 109
$$

ILZ028>032-037-038-041>044-048-051>054-059>061-202000-
CENTRAL ILLINOIS

CITY           SKY/WX    TMP DP  RH WIND       PRES   REMARKS
PONTIAC        CLOUDY    87  80  79 SW13      29.98S HX 101
BLOOMINGTON    CLOUDY    92  78  63 SW17G23   29.98F HX 107
DECATUR        CLOUDY    91  75  59 SW14      30.00F HX 101
PEORIA         MOSUNNY   93  78  61 W13       29.96F HX 108
LACON*         MOSUNNY   88  79  73 SW9       29.95F HX 102
LINCOLN*       SUNNY     93  78  62 SW7       29.98F HX 108
SPRINGFIELD    SUNNY     94  78  60 SW9       29.99F HX 110
TAYLORVILLE    CLOUDY    92  75  56 SW9       30.02F HX 103
$$

ILZ033-039-045-046-055>057-062-063-202000-
EAST-CENTRAL ILLINOIS

CITY           SKY/WX    TMP DP  RH WIND       PRES   REMARKS
RANTOUL*       CLOUDY    88  78  71 SW7G16    29.98F HX 102
MATTOON        MOSUNNY   92  77  61 SW9       30.02F HX 105
PARIS*         PTSUNNY   87  78  74 S7        30.02F HX 100
$$

ILZ079-100>102-202000-
SOUTHWEST ILLINOIS

CITY           SKY/WX    TMP DP  RH WIND       PRES   REMARKS
ALTON          MOSUNNY   95  75  52 S5        30.03F HX 107
BELLEVILLE     MOSUNNY   95  73  48 S9        30.04F HX 104
CAHOKIA*       SUNNY     98  66  34 SW8       30.02F HX 101
SPARTA*        MOSUNNY   94  69  44 CALM      30.06F HX  98
$$

ILZ064>066-069>071-074>076-080>082-084>086-088>090-092>094-202000-
SOUTH-CENTRAL ILLINOIS

CITY           SKY/WX    TMP DP  RH WIND       PRES   REMARKS
CARBONDALE     CLOUDY    93  74  53 W6        30.06F HX 103
CAIRO*         CLOUDY    92  75  57 SW6       30.06F HX 104
EFFINGHAM*     PTSUNNY   94  72  49 SW8       30.04F HX 102
MARION         MOSUNNY   93  72  49 W8        30.07F HX 100
MT. VERNON     MOSUNNY   96  74  48 S7        30.04F HX 107
CENTRALIA*     CLOUDY    96  72  45 SW6       30.03F HX 104
SALEM*         PTSUNNY   95  69  42 SW3       30.03F HX 100
METROPOLIS*    CLOUDY    92  74  54 W3        30.08F HX 102
$$

ILZ067-068-072-073-078-083-087-091-202000-
SOUTHEAST ILLINOIS

CITY           SKY/WX    TMP DP  RH WIND       PRES   REMARKS
LAWRENCEVILLE  CLOUDY    91  76  61 SW8       30.03F HX 103
FLORA*         CLOUDY    96  71  43 SW10      30.03F HX 104
FAIRFIELD*     MOSUNNY   93  76  57 S6        30.03F HX 104
HARRISBURG*    CLOUDY    92  76  58 SW6       30.06F HX 104
ROBINSON*      CLOUDY    89  76  64 SW7       30.04F HX 100
CARMI*         PTSUNNY   91  78  65 S6        30.04F HX 104
$$

ABBREVIATIONS USED IN REMARKS
   TC - TEMPERATURE IN CELSIUS
  WCI - WIND CHILL INDEX
   HX - HEAT INDEX
  VSB - VISIBILITY
$$





USA.gov is the U.S. government's official web portal to all federal, state and local government web resources and services.